#timestamp,LO_Frequency,Hit,StdDev 
1709481615.5,286047003.3,N
1709481635.3,286047003.5,N
1709481655.2,286047003.4,N
1709481675.9,286047003.1,N
1709481695.7,286047003.0,N
1709481715.6,286047000.9,N
1709481735.4,286046998.2,N
1709481755.2,286047000.6,N
1709481775.1,286047000.4,N
1709481776.0,286047000.4,N
1709481795.8,286046998.6,N
1709481815.7,286047003.9,N
1709481835.5,286047004.1,N
1709481855.3,286046999.7,N
1709481875.2,286046998.4,N
1709481895.0,286046999.2,N
1709481895.9,286046999.2,N
1709481915.8,286046996.9,N
1709481935.6,286046998.3,N
1709481955.4,286046998.5,N
1709481975.3,286047002.5,N
1709481995.1,286047002.3,N
1709482015.8,286047000.0,N
1709482035.7,286046998.5,N
1709482055.5,286047000.8,N
1709482075.3,286046995.6,N
1709482095.2,286046997.5,N
1709482115.0,286046997.5,N
1709482115.9,286046997.5,N
1709482135.8,286046999.5,N
1709482155.6,286047001.0,N
1709482175.4,286046999.0,N
1709482195.3,286046997.9,N
1709482215.1,286046995.8,N
1709482235.8,286046997.6,N
1709482255.7,286046997.5,N
1709482275.5,286046996.6,N
1709482295.4,286046997.7,N
1709482315.2,286046996.6,N
1709482335.0,286046995.3,N
1709482335.9,286046995.3,N
1709482355.8,286046997.3,N
1709482375.6,286046998.2,N
1709482395.4,286046998.6,N
1709482415.3,286046996.9,N
1709482435.1,286046997.0,N
1709482455.9,286046997.2,N
1709482475.7,286046995.9,N
1709482495.5,286046996.8,N
1709482515.4,286046996.0,N
1709482535.2,286046995.3,N
1709482555.0,286046993.7,Y
1709482556.0,286046993.7,P
1709482575.8,286046995.3,N
1709482595.6,286046994.0,P
1709482615.5,286046994.7,Y
1709482635.3,286046998.1,P
1709482655.1,286047002.0,N
1709482675.9,286047001.3,N
1709482695.7,286047002.2,N
1709482715.6,286046998.5,N
1709482735.4,286046999.9,N
1709482755.2,286047001.8,N
1709482775.1,286047002.1,N
1709482776.0,286047002.1,N
1709482795.8,286047002.3,N
1709482815.6,286047000.7,N
1709482835.5,286047000.9,N
1709482855.3,286047001.0,N
1709482875.2,286047002.7,N
1709482895.9,286047001.7,N
1709482915.7,286047001.8,N
1709482935.6,286046999.7,N
1709482955.4,286046999.8,N
1709482975.2,286047003.8,N
1709482995.1,286047002.1,N
1709482996.0,286047002.1,N
1709483015.8,286047000.0,N
1709483035.7,286047000.4,N
1709483055.5,286047000.4,N
1709483075.3,286047003.1,N
1709483095.2,286047001.4,N
1709483115.0,286046999.8,N
1709483115.9,286046999.8,N
1709483135.8,286046999.9,N
1709483155.6,286047001.8,N
1709483175.4,286047003.6,N
1709483195.3,286047003.7,N
1709483215.1,286047001.4,N
1709483235.8,286047001.8,N
1709483255.7,286047001.4,N
1709483275.5,286047003.0,N
1709483295.4,286047004.3,Y
1709483315.2,286047000.1,P
1709483335.0,286047001.6,N
1709483335.9,286047001.6,N
1709483355.8,286047006.1,Y
1709483375.6,286047005.0,P
1709483395.5,286047012.0,P
1709483415.3,286047009.4,N
1709483435.1,286047009.0,N
1709483455.9,286047006.9,N
1709483475.7,286047010.3,N
1709483495.6,286047009.3,N
1709483515.4,286047012.4,Y
1709483535.2,286047005.8,P
1709483555.1,286047003.2,P
1709483556.0,286047003.2,N
1709483575.8,286047002.9,N
1709483595.7,286047005.6,N
1709483615.5,286047005.9,Y
1709483635.3,286046996.9,P
1709483655.2,286047000.6,N
1709483675.0,286047002.1,N
1709483675.9,286047002.1,N
1709483695.7,286047001.6,N
1709483715.6,286047004.5,N
1709483735.4,286047011.9,Y
1709483755.3,286047009.6,P
1709483775.1,286047013.0,P
1709483776.0,286047013.0,N
1709483795.8,286047017.1,Y
1709483815.7,286047005.0,P
1709483835.5,286047005.2,N
1709483855.4,286047006.1,P
1709483875.2,286047007.0,Y
1709483895.0,286047000.5,P
1709483926.0,286047004.9,E
1709483935.9,286047003.9,N
1709483955.7,286046998.4,P
1709483975.6,286046998.8,N
1709483995.4,286046997.1,N
1709484015.2,286046998.7,N
1709484035.1,286046998.5,N
1709484036.0,286046998.5,N
1709484055.8,286046997.0,N
1709484075.7,286046999.6,N
1709484095.5,286046996.7,N
1709484115.3,286046994.9,N
1709484135.2,286046995.0,N
1709484155.0,286046997.6,N
1709484155.9,286046997.6,N
1709484175.8,286046996.4,N
1709484195.6,286046994.9,N
1709484215.4,286046996.5,N
1709484235.3,286047000.7,N
1709484255.1,286047000.9,N
1709484275.9,286047000.6,N
1709484295.7,286047001.6,N
1709484315.5,286047004.2,N
1709484335.4,286047001.9,N
1709484355.2,286047000.3,N
1709484375.0,286046999.4,N
1709484375.9,286046999.4,N
1709484395.8,286047002.1,N
1709484415.6,286047004.2,N
1709484435.5,286047006.2,N
1709484455.3,286047006.7,N
1709484475.1,286047005.3,N
1709484495.9,286047008.5,N
1709484515.7,286047009.8,N
1709484535.5,286047011.0,N
1709484555.4,286047011.9,N
1709484575.2,286047013.2,N
1709484595.1,286047008.4,N
1709484596.0,286047008.4,N
1709484615.8,286047008.4,N
1709484635.6,286047008.5,N
1709484655.5,286047011.4,N
1709484675.3,286047015.4,N
1709484695.1,286047012.7,N
1709484715.9,286047013.5,N
1709484735.7,286047011.4,N
1709484755.6,286047011.0,N
1709484775.4,286047012.5,N
1709484795.2,286047014.6,Y
1709484815.1,286047008.2,P
1709484816.0,286047008.2,P
1709484835.8,286047008.2,P
1709484855.7,286047008.3,Y
1709484875.5,286047002.1,P
1709484895.3,286047001.9,N
1709484915.2,286047001.4,N
1709484935.9,286047004.8,N
1709484955.7,286047005.1,N
1709484975.6,286047006.0,N
1709484995.4,286047007.6,Y
1709485015.3,286047000.8,P
1709485035.1,286047001.1,N
1709485036.0,286047001.1,N
1709485055.8,286046999.5,N
1709485075.7,286047001.2,N
1709485095.5,286047002.6,N
1709485115.3,286047000.0,N
1709485135.2,286047000.6,N
1709485155.0,286047002.7,N
1709485155.9,286047002.7,N
1709485175.8,286047001.8,N
1709485195.6,286047005.1,Y
